Location: Gwatt
(46.7204°N, 7.6223°E)
Time: 13:16:12
(UTC+00:00)

deb Explorer IX - Pass Details

Date: 23 January 2021
Orbit: 537 x 1102 km, 38.8° (Epoch: 01 March)

Event Time Altitude Azimuth Distance (km) Brightness Sun altitude
Rises 20:17:18 0° 260° (W) 3,414 ? -40.3°
Reaches altitude 10° 20:20:13 10° 252° (WSW) 2,374 ? -40.8°
Enters shadow 20:20:56 13° 248° (WSW) 2,134 ? -40.9°
Maximum altitude 20:25:06 32° 190° (S) 1,209 - -41.6°
Drops below altitude 10° 20:29:20 10° 127° (SE) 2,050 - -42.3°
Sets 20:31:42 0° 117° (ESE) 2,883 - -42.7°
